Location: Unspecified
(35.7250°N, 0.0000°E)
Time: 11:04:14
(UTC+00:00)

Vanguard 2 Rocket - Visible Passes

Search period start: 05 August 2020 00:00
Search period end: 15 August 2020 00:00
Orbit: 556 x 3325 km, 32.9° (Epoch: 04 August)

Date Brightness Start Highest point End Pass type
(mag) Time Alt. Az. Time Alt. Az. Time Alt. Az.
05 Aug 9.5 00:42:49 10° W 01:14:10 19° SSE 01:17:54 10° SE visible
05 Aug 10.2 03:20:14 20° SSW 03:20:14 20° SSW 03:28:07 10° S visible
05 Aug 8.5 19:15:07 10° WSW 19:23:39 70° SSE 19:39:04 10° E visible
05 Aug 8.9 21:27:54 10° W 21:39:44 79° S 21:52:04 27° ESE visible
05 Aug 9.3 23:42:07 10° W 23:57:11 59° SSW 23:57:41 59° SSW visible
06 Aug 10.4 01:59:20 10° W 02:26:23 17° S 02:29:52 10° SSE visible
06 Aug 8.7 20:28:27 10° W 20:38:31 80° S 20:54:01 15° E visible
06 Aug 9.1 22:41:57 10° W 22:55:24 67° SSW 22:59:40 56° SSE visible
07 Aug 10.0 00:57:31 10° W 01:31:55 - SSE 01:05:19 30° WSW visible
07 Aug 8.4 19:29:16 10° WSW 19:37:46 76° S 19:53:16 10° E visible
07 Aug 8.9 21:42:10 10° W 21:53:53 73° SSW 22:01:56 40° ESE visible
07 Aug 9.5 23:56:35 10° W 00:07:36 44° SW 00:07:36 44° SW visible
08 Aug10.802:42:55S02:42:55S02:13:17Wvisible
08 Aug 8.6 20:42:43 10° W 20:52:44 77° S 21:04:25 24° ESE visible
08 Aug 9.2 22:56:18 10° W 23:09:24 56° SSW 23:10:06 56° SSW visible
09 Aug 10.4 01:12:49 10° W 01:15:47 16° W 01:15:47 16° W visible
09 Aug 8.4 19:43:31 10° W 19:51:59 78° S 20:07:02 11° E visible
09 Aug 8.9 21:56:29 10° W 22:07:59 64° SSW 22:12:45 50° SSE visible
10 Aug 9.9 00:11:24 10° W 00:18:27 29° WSW 00:18:27 29° WSW visible
10 Aug 8.7 20:57:00 10° W 21:06:55 70° SSW 21:15:30 33° ESE visible
10 Aug 9.4 23:10:50 10° W 23:21:13 43° SW 23:21:13 43° SW visible
11 Aug 8.4 19:57:48 10° W 20:06:12 74° S 20:18:22 17° ESE visible
11 Aug 9.1 22:10:52 10° W 22:22:04 52° SSW 22:24:06 50° S visible
12 Aug 10.3 00:26:51 10° W 00:29:49 16° WSW 00:29:49 16° WSW visible
12 Aug 8.1 18:58:47 10° W 19:05:53 76° S 19:18:57 10° E visible
12 Aug 8.7 21:11:20 10° W 21:21:03 59° SSW 21:27:03 40° SE visible
12 Aug 9.8 23:25:46 10° W 23:32:47 29° WSW 23:32:47 29° WSW visible
13 Aug 8.4 20:12:05 10° W 20:20:24 66° SSW 20:30:07 23° ESE visible
13 Aug 9.3 22:25:30 10° W 22:35:51 40° SSW 22:35:51 40° SSW visible
14 Aug 8.1 19:13:04 10° W 19:20:07 71° S 19:33:01 10° ESE visible
14 Aug 8.9 21:25:47 10° W 21:35:13 47° SSW 21:38:58 40° SSE visible
